Find Geely Xingzuo 05 zu 11 xing

NORAD ID: 65560 Int'l Des: 2025-201 Owner: GEESP Country: CN Constellation: geesatcom operational
LEOCIRCULAR

实时位置

正在加载3D地球...

关于 Geely Xingzuo 05 zu 11 xing

正在加载描述...

即将过境

Passes for default location (London). Set your location on the main map for personalized predictions.

高度历史

Loading altitude history...

两行轨道根数

1 65560U 25201L 26133.39500675 .00000847 00000-0 12766-3 0 9996
2 65560 49.9868 200.2590 0009051 210.7216 149.3193 14.84051531 36652
Epoch: May 13, 2026 • Age: 10 hours

当前状态

高度 622.4 km
速度 7.55 km/s
星下点 0.98°N, 39.91°E
发射日期 Sep 8, 2025
运行时间 0.6 years
类型 other

技术详情

分类 Payload
质量 130.00 kg
干质量 130.00 kg
总质量 130.00 kg
长度 1.00 m
直径 0.50 m
跨度 2.00 m
形状 Box + 2 pan
制造商 GWCG
平台类型 GPS100
阶段状态 In Orbit
所有者/国家 GEESP/CN

Most Searched